sat.trackr.live / text

‹ back to catalog

STARLINK-5537

NORAD 55384 · 2023-013BF

PAYLOAD ACTIVE UNKNOWN

§ Identity

Operator
Country
US
Launch date
2023-01-26
Launch site
AFETR
Launch vehicle
Mass (kg)
RCS (m²)

Purposes: comms

External: N2YO · Heavens-Above · Gunter

§ Orbital elements

Epoch: 2026-05-25T00:09:42.774912Z

Period
94.27 min
Inclination
43.0041°
Eccentricity
0.0001852
Mean motion
15.27575520 rev/d
Perigee alt
481.8 km
Apogee alt
484.3 km
Semi-major
6,861.2 km
B*
1.0559e-5
RAAN
247.2241°
Arg perigee
282.9037°
Mean anomaly
77.1608°
Rev number
18,317

§ Raw data

STARLINK-55371 55384U 23013BF  26145.00674508  .00000028  00000+0  10559-4 0  99952 55384  43.0041 247.2241 0001852 282.9037  77.1608 15.27575520183176

JSON: /api/v1/satellites/55384 · /tle

For live sub-satellite position, see the globe view (requires WebGL).

§ Visibility from observer

Set your observer location to see the next 7 days of passes ≥ 10°. The values pass through the URL so the page stays shareable.

No JS? Fill the form by hand. The geolocation button needs JavaScript.